Location: Asheville, NC
(35.6000°N, 82.5500°W)
Time: 14:57:53
(UTC-05:00)

Vanguard 2 - Pass Details

Date: 09 December 2017
Orbit: 552 x 2940 km, 32.9° (Epoch: 16 January)

Event Time Altitude Azimuth Distance (km) Brightness Sun altitude
Rises 23:26:02 0° 259° (W) 2,901 - -72.3°
Reaches altitude 10° 23:29:23 10° 230° (SW) 2,224 - -72.8°
Maximum altitude 23:31:41 13° 202° (SSW) 2,216 - -73.1°
Drops below altitude 10° 23:34:21 10° 176° (S) 2,673 - -73.5°
Sets 23:39:20 0° 152° (SSE) 4,153 - -74.2°
